When you browse on this site, cookies collect data to enhance your experience and personalize the content and advertising you see.
Visit our Privacy Policy to learn more. By continuing to use the site, you agree to this use of cookies and data.
  • în România
  • Lista ţărilor
  • Pe 7 zile
  • Temperatura apei
  • Hartă satelitară
  • Meteo pe hartă
  • Widget-uri
  • user-avatar
    Intrare

    Meteo pe oră la Naydenka

    Astăzi, 17 Ianuarie, Joi

    Timp Temperatura Precipitaţii Vânt Presiune Umiditate
    00:00 -8°C° 0 mm 3 m/s 733 mmHg 89%
    01:00 -8°C° 0 mm 3 m/s 733 mmHg 88%
    02:00 -8°C° 0 mm 3 m/s 733 mmHg 86%
    03:00 -9°C° 0 mm 3 m/s 733 mmHg 87%
    04:00 -10°C° 0 mm 3 m/s 733 mmHg 89%
    05:00 -10°C° 0 mm 3 m/s 733 mmHg 90%
    06:00 -12°C° 0 mm 3 m/s 732 mmHg 91%
    07:00 -12°C° 0 mm 3 m/s 732 mmHg 92%
    08:00 -12°C° 0 mm 3 m/s 731 mmHg 93%
    09:00 -11°C° 0.4 mm 4 m/s 730 mmHg 92%
    10:00 -11°C° 0.4 mm 5 m/s 730 mmHg 92%
    11:00 -10°C° 0.4 mm 5 m/s 729 mmHg 91%
    12:00 -8°C° 0.7 mm 5 m/s 728 mmHg 91%
    13:00 -6°C° 0.7 mm 5 m/s 728 mmHg 91%
    14:00 -5°C° 0 mm 5 m/s 726 mmHg 91%
    15:00 -4°C° 0.4 mm 6 m/s 726 mmHg 89%
    16:00 -3°C° 0.4 mm 6 m/s 726 mmHg 88%
    17:00 -2°C° 0.4 mm 6 m/s 725 mmHg 86%
    18:00 -2°C° 0.8 mm 6 m/s 725 mmHg 86%
    19:00 -2°C° 0.8 mm 6 m/s 724 mmHg 86%
    20:00 -2°C° 0.8 mm 6 m/s 723 mmHg 86%
    21:00 -2°C° 0.3 mm 6 m/s 724 mmHg 86%
    22:00 -2°C° 0.3 mm 6 m/s 724 mmHg 86%
    23:00 -1°C° 0.3 mm 6 m/s 724 mmHg 86%

    Mâine, 18 Ianuarie, Vineri

    Timp Temperatura Precipitaţii Vânt Presiune Umiditate
    00:00 -2°C° 0.1 mm 6 m/s 725 mmHg 86%
    01:00 -1°C° 0.1 mm 5 m/s 725 mmHg 85%
    02:00 -1°C° 0.1 mm 5 m/s 726 mmHg 84%
    03:00 -2°C° 0 mm 5 m/s 727 mmHg 84%
    04:00 -4°C° 0 mm 5 m/s 727 mmHg 85%
    05:00 -4°C° 0 mm 4 m/s 728 mmHg 85%
    06:00 -5°C° 0 mm 4 m/s 729 mmHg 85%
    07:00 -7°C° 0 mm 4 m/s 729 mmHg 85%
    08:00 -7°C° 0 mm 4 m/s 730 mmHg 85%
    09:00 -7°C° 0 mm 4 m/s 731 mmHg 84%
    10:00 -7°C° 0 mm 4 m/s 731 mmHg 84%
    11:00 -8°C° 0 mm 4 m/s 732 mmHg 83%
    12:00 -8°C° 0 mm 4 m/s 733 mmHg 84%
    13:00 -7°C° 0 mm 3 m/s 733 mmHg 86%
    14:00 -8°C° 0 mm 3 m/s 733 mmHg 87%
    15:00 -8°C° 0 mm 2 m/s 733 mmHg 89%
    16:00 -8°C° 0 mm 2 m/s 733 mmHg 92%
    17:00 -8°C° 0 mm 1 m/s 733 mmHg 94%
    18:00 -8°C° 0 mm 1 m/s 733 mmHg 94%
    19:00 -9°C° 0 mm 1 m/s 733 mmHg 93%
    20:00 -9°C° 0 mm 1 m/s 733 mmHg 93%
    21:00 -9°C° 0 mm 1 m/s 733 mmHg 93%
    22:00 -10°C° 0 mm 2 m/s 733 mmHg 93%
    23:00 -10°C° 0 mm 2 m/s 734 mmHg 92%

    Poimâine, 19 Ianuarie, Sâmbătă

    Timp Temperatura Precipitaţii Vânt Presiune Umiditate
    00:00 -12°C° 0 mm 2 m/s 734 mmHg 93%
    01:00 -12°C° 0 mm 2 m/s 735 mmHg 94%
    02:00 -14°C° 0 mm 3 m/s 735 mmHg 95%
    03:00 -13°C° 0 mm 3 m/s 736 mmHg 94%
    04:00 -13°C° 0 mm 3 m/s 736 mmHg 94%
    05:00 -13°C° 0 mm 3 m/s 736 mmHg 94%
    06:00 -12°C° 0 mm 3 m/s 736 mmHg 94%
    07:00 -12°C° 0 mm 3 m/s 737 mmHg 94%
    08:00 -10°C° 0 mm 3 m/s 737 mmHg 94%
    09:00 -9°C° 0.1 mm 3 m/s 737 mmHg 92%
    10:00 -9°C° 0.1 mm 3 m/s 738 mmHg 90%
    11:00 -8°C° 0.1 mm 3 m/s 738 mmHg 89%
    12:00 -8°C° 0.1 mm 3 m/s 738 mmHg 88%
    13:00 -9°C° 0.1 mm 3 m/s 738 mmHg 87%
    14:00 -9°C° 0.1 mm 3 m/s 739 mmHg 86%
    15:00 -10°C° 0 mm 3 m/s 739 mmHg 88%
    16:00 -10°C° 0 mm 2 m/s 739 mmHg 91%
    17:00 -12°C° 0 mm 2 m/s 739 mmHg 93%
    18:00 -12°C° 0 mm 2 m/s 740 mmHg 93%
    19:00 -12°C° 0 mm 2 m/s 740 mmHg 94%
    20:00 -13°C° 0 mm 2 m/s 740 mmHg 94%
    21:00 -13°C° 0 mm 2 m/s 740 mmHg 94%
    22:00 -13°C° 0 mm 2 m/s 741 mmHg 95%
    23:00 -13°C° 0 mm 2 m/s 741 mmHg 95%

    20 Ianuarie, Duminică

    Timp Temperatura Precipitaţii Vânt Presiune Umiditate
    00:00 -13°C° 0 mm 3 m/s 741 mmHg 94%
    01:00 -10°C° 0 mm 3 m/s 741 mmHg 93%
    02:00 -8°C° 0 mm 3 m/s 741 mmHg 91%
    03:00 -9°C° 0 mm 4 m/s 740 mmHg 90%
    04:00 -9°C° 0 mm 4 m/s 740 mmHg 89%
    05:00 -9°C° 0 mm 4 m/s 739 mmHg 88%
    06:00 -8°C° 0.2 mm 5 m/s 739 mmHg 87%
    07:00 -8°C° 0.2 mm 5 m/s 738 mmHg 86%
    08:00 -8°C° 0.2 mm 5 m/s 738 mmHg 86%
    09:00 -8°C° 0.1 mm 5 m/s 738 mmHg 85%
    10:00 -7°C° 0.1 mm 4 m/s 738 mmHg 85%
    11:00 -7°C° 0.1 mm 4 m/s 738 mmHg 84%
    12:00 -7°C° 0 mm 4 m/s 738 mmHg 84%
    13:00 -7°C° 0 mm 4 m/s 738 mmHg 83%
    14:00 -8°C° 0 mm 4 m/s 738 mmHg 83%
    15:00 -9°C° 0 mm 4 m/s 739 mmHg 85%
    16:00 -9°C° 0 mm 3 m/s 739 mmHg 86%
    17:00 -9°C° 0 mm 3 m/s 739 mmHg 88%
    18:00 -12°C° 0 mm 3 m/s 739 mmHg 90%
    19:00 -12°C° 0 mm 2 m/s 740 mmHg 92%
    20:00 -13°C° 0 mm 2 m/s 740 mmHg 95%
    21:00 -13°C° 0 mm 2 m/s 740 mmHg 95%
    22:00 -13°C° 0 mm 2 m/s 740 mmHg 96%
    23:00 -13°C° 0 mm 2 m/s 741 mmHg 96%

    21 Ianuarie, Luni

    Timp Temperatura Precipitaţii Vânt Presiune Umiditate
    00:00 -14°C° 0 mm 2 m/s 741 mmHg 96%
    01:00 -14°C° 0 mm 2 m/s 741 mmHg 96%
    02:00 -14°C° 0 mm 2 m/s 741 mmHg 96%
    03:00 -14°C° 0 mm 2 m/s 741 mmHg 96%
    04:00 -14°C° 0 mm 2 m/s 741 mmHg 96%
    05:00 -14°C° 0 mm 2 m/s 741 mmHg 96%
    06:00 -14°C° 0 mm 2 m/s 741 mmHg 96%
    07:00 -15°C° 0 mm 2 m/s 741 mmHg 96%
    08:00 -15°C° 0 mm 2 m/s 741 mmHg 97%
    09:00 -15°C° 0 mm 2 m/s 742 mmHg 95%
    10:00 -14°C° 0 mm 2 m/s 742 mmHg 93%
    11:00 -15°C° 0 mm 3 m/s 742 mmHg 92%
    12:00 -15°C° 0 mm 3 m/s 742 mmHg 91%
    13:00 -15°C° 0 mm 3 m/s 742 mmHg 90%
    14:00 -15°C° 0 mm 3 m/s 743 mmHg 90%
    15:00 -16°C° 0 mm 3 m/s 743 mmHg 92%
    16:00 -17°C° 0 mm 3 m/s 743 mmHg 93%
    17:00 -18°C° 0 mm 3 m/s 743 mmHg 95%
    18:00 -19°C° 0 mm 3 m/s 743 mmHg 95%
    19:00 -21°C° 0 mm 3 m/s 744 mmHg 96%
    20:00 -22°C° 0 mm 3 m/s 744 mmHg 96%
    21:00 -22°C° 0 mm 3 m/s 744 mmHg 96%
    22:00 -22°C° 0 mm 3 m/s 744 mmHg 96%
    23:00 -23°C° 0 mm 3 m/s 744 mmHg 97%

    22 Ianuarie, Marţi

    Timp Temperatura Precipitaţii Vânt Presiune Umiditate
    00:00 -23°C° 0 mm 3 m/s 744 mmHg 97%
    01:00 -23°C° 0 mm 3 m/s 745 mmHg 97%
    02:00 -23°C° 0 mm 3 m/s 745 mmHg 97%
    03:00 -23°C° 0 mm 3 m/s 745 mmHg 97%
    04:00 -21°C° 0 mm 2 m/s 745 mmHg 97%
    05:00 -21°C° 0 mm 2 m/s 745 mmHg 97%
    06:00 -20°C° 0 mm 2 m/s 746 mmHg 96%
    07:00 -20°C° 0 mm 2 m/s 746 mmHg 96%
    08:00 -20°C° 0 mm 2 m/s 746 mmHg 96%
    09:00 -19°C° 0 mm 2 m/s 746 mmHg 95%
    10:00 -18°C° 0 mm 2 m/s 747 mmHg 95%
    11:00 -18°C° 0 mm 2 m/s 747 mmHg 94%
    12:00 -18°C° 0 mm 2 m/s 747 mmHg 94%
    13:00 -17°C° 0 mm 2 m/s 747 mmHg 94%
    14:00 -17°C° 0 mm 2 m/s 747 mmHg 94%
    15:00 -18°C° 0 mm 2 m/s 747 mmHg 95%
    16:00 -19°C° 0 mm 2 m/s 748 mmHg 96%
    17:00 -20°C° 0 mm 2 m/s 748 mmHg 97%
    18:00 -21°C° 0 mm 2 m/s 748 mmHg 98%
    19:00 -21°C° 0 mm 2 m/s 748 mmHg 98%
    20:00 -23°C° 0 mm 2 m/s 748 mmHg 98%
    21:00 -23°C° 0 mm 2 m/s 748 mmHg 98%
    22:00 -23°C° 0 mm 2 m/s 748 mmHg 98%
    23:00 -21°C° 0 mm 2 m/s 748 mmHg 98%
    Arată mai mult